QPF
0.01 0.02 0.02 0.02 0.02 0.01 0.01 0.01 0.00 0.00 0.00 0.00 0.00 0.00 0.00 0.00 0.00 0.00 0.00 0.01 0.02 0.03 0.02 0.01 0.01 0.01 0.01 0.01 0.01 0.02 0.03 0.03 0.04 0.03 0.03 0.02 0.02 0.02 0.03 0.04 0.05 0.04 0.03 0.02
0.02 0.02 0.01 0.00 0.00 0.00 0.01 0.01 0.00 0.00 0.00 0.01 0.00 0.00 0.00 0.00 0.00 0.00 0.00 0.01 0.03 0.03 0.02 0.01 0.01 0.01 0.01 0.01 0.01 0.02 0.02 0.03 0.04 0.03 0.03 0.02 0.01 0.01 0.01 0.02 0.03 0.04 0.04 0.04
0.01 0.01 0.00 0.01 0.01 0.01 0.01 0.01 0.00 0.01 0.01 0.01 0.01 0.02 0.01 0.00 0.00 0.00 0.00 0.02 0.03 0.04 0.02 0.01 0.01 0.01 0.01 0.01 0.02 0.01 0.02 0.03 0.04 0.04 0.03 0.02 0.02 0.01 0.01 0.01 0.02 0.02 0.03 0.04
0.01 0.00 0.00 0.00 0.02 0.02 0.01 0.01 0.01 0.01 0.02 0.03 0.02 0.03 0.01 0.00 0.00 0.01 0.01 0.02 0.03 0.03 0.03 0.01 0.01 0.01 0.01 0.01 0.02 0.02 0.01 0.02 0.03 0.03 0.02 0.02 0.01 0.01 0.01 0.01 0.01 0.01 0.02 0.02
0.01 0.01 0.00 0.00 0.00 0.01 0.02 0.02 0.03 0.02 0.03 0.04 0.03 0.03 0.01 0.01 0.01 0.02 0.02 0.02 0.03 0.03 0.03 0.01 0.01 0.01 0.01 0.01 0.02 0.02 0.02 0.02 0.03 0.03 0.02 0.02 0.02 0.01 0.01 0.01 0.01 0.01 0.01 0.01
0.02 0.01 0.01 0.01 0.00 0.01 0.01 0.03 0.03 0.03 0.04 0.04 0.02 0.01 0.01 0.01 0.02 0.03 0.03 0.02 0.03 0.03 0.02 0.01 0.00 0.01 0.01 0.02 0.02 0.02 0.03 0.03 0.03 0.03 0.03 0.02 0.02 0.01 0.01 0.01 0.01 0.01 0.01 0.01
0.03 0.02 0.02 0.02 0.03 0.02 0.03 0.05 0.06 0.06 0.05 0.03 0.01 0.01 0.01 0.02 0.03 0.04 0.04 0.03 0.03 0.03 0.01 0.01 0.00 0.01 0.01 0.03 0.03 0.02 0.03 0.03 0.03 0.03 0.03 0.02 0.02 0.01 0.01 0.01 0.01 0.01 0.01 0.01
0.03 0.03 0.03 0.02 0.02 0.03 0.03 0.04 0.05 0.04 0.03 0.02 0.01 0.02 0.04 0.04 0.04 0.04 0.03 0.02 0.03 0.03 0.01 0.01 0.01 0.01 0.02 0.03 0.04 0.04 0.03 0.02 0.02 0.03 0.03 0.03 0.02 0.02 0.01 0.01 0.01 0.01 0.01 0.01
0.02 0.03 0.02 0.02 0.01 0.01 0.02 0.02 0.02 0.04 0.03 0.03 0.02 0.03 0.04 0.04 0.04 0.04 0.03 0.03 0.03 0.03 0.01 0.01 0.01 0.02 0.03 0.03 0.03 0.04 0.04 0.02 0.02 0.02 0.02 0.02 0.02 0.02 0.02 0.01 0.01 0.01 0.01 0.01
0.02 0.03 0.02 0.02 0.01 0.01 0.01 0.01 0.02 0.03 0.03 0.03 0.03 0.03 0.04 0.04 0.04 0.04 0.03 0.03 0.04 0.03 0.01 0.01 0.01 0.02 0.03 0.04 0.03 0.03 0.04 0.04 0.03 0.02 0.03 0.03 0.02 0.02 0.02 0.01 0.01 0.02 0.02 0.02
0.01 0.02 0.02 0.03 0.03 0.02 0.01 0.03 0.03 0.03 0.03 0.03 0.03 0.03 0.04 0.05 0.04 0.04 0.03 0.03 0.03 0.02 0.01 0.01 0.02 0.02 0.03 0.04 0.03 0.03 0.03 0.04 0.04 0.04 0.04 0.03 0.03 0.03 0.02 0.02 0.01 0.02 0.02 0.02
0.01 0.02 0.02 0.02 0.02 0.01 0.01 0.02 0.02 0.03 0.03 0.03 0.03 0.03 0.03 0.03 0.03 0.03 0.03 0.02 0.02 0.01 0.01 0.01 0.02 0.02 0.02 0.04 0.03 0.03 0.03 0.04 0.04 0.04 0.04 0.03 0.03 0.03 0.03 0.02 0.01 0.01 0.01 0.02
0.02 0.02 0.02 0.02 0.02 0.01 0.02 0.02 0.02 0.02 0.03 0.02 0.02 0.02 0.02 0.02 0.02 0.02 0.02 0.02 0.02 0.01 0.01 0.01 0.03 0.03 0.02 0.03 0.03 0.03 0.03 0.03 0.04 0.04 0.04 0.03 0.02 0.02 0.02 0.02 0.02 0.01 0.01 0.01
0.04 0.04 0.02 0.02 0.01 0.01 0.02 0.02 0.02 0.02 0.03 0.02 0.02 0.02 0.01 0.01 0.02 0.02 0.02 0.01 0.02 0.02 0.02 0.02 0.04 0.03 0.02 0.03 0.03 0.02 0.02 0.02 0.03 0.04 0.04 0.04 0.02 0.02 0.02 0.02 0.02 0.01 0.01 0.01
0.04 0.04 0.01 0.01 0.01 0.01 0.02 0.02 0.02 0.02 0.02 0.02 0.02 0.01 0.02 0.03 0.03 0.03 0.02 0.01 0.01 0.02 0.03 0.03 0.05 0.03 0.03 0.04 0.03 0.02 0.02 0.02 0.03 0.04 0.04 0.04 0.03 0.02 0.02 0.02 0.02 0.02 0.01 0.01
0.03 0.03 0.02 0.01 0.01 0.01 0.02 0.01 0.01 0.02 0.02 0.02 0.02 0.02 0.02 0.03 0.03 0.02 0.02 0.02 0.02 0.03 0.04 0.05 0.05 0.03 0.03 0.03 0.03 0.02 0.02 0.02 0.02 0.03 0.03 0.04 0.04 0.03 0.02 0.02 0.02 0.02 0.02 0.02
0.03 0.03 0.03 0.02 0.01 0.02 0.02 0.01 0.01 0.01 0.02 0.02 0.03 0.03 0.03 0.03 0.03 0.03 0.02 0.02 0.03 0.04 0.05 0.06 0.06 0.05 0.03 0.03 0.03 0.03 0.03 0.03 0.02 0.03 0.03 0.04 0.04 0.04 0.03 0.03 0.02 0.02 0.02 0.02
0.03 0.03 0.04 0.03 0.02 0.02 0.01 0.01 0.01 0.01 0.01 0.02 0.02 0.03 0.03 0.03 0.03 0.03 0.03 0.02 0.03 0.03 0.05 0.06 0.07 0.07 0.05 0.04 0.03 0.03 0.03 0.04 0.04 0.04 0.04 0.04 0.05 0.05 0.05 0.03 0.03 0.03 0.02 0.02
0.02 0.03 0.04 0.03 0.02 0.01 0.01 0.01 0.01 0.02 0.02 0.02 0.02 0.02 0.02 0.02 0.02 0.02 0.02 0.02 0.02 0.03 0.03 0.04 0.06 0.06 0.06 0.06 0.05 0.03 0.03 0.03 0.04 0.04 0.05 0.05 0.04 0.05 0.05 0.04 0.03 0.03 0.02 0.02
0.02 0.03 0.05 0.04 0.03 0.01 0.01 0.01 0.01 0.02 0.02 0.01 0.02 0.02 0.02 0.02 0.02 0.02 0.03 0.02 0.02 0.02 0.02 0.02 0.03 0.03 0.05 0.05 0.05 0.03 0.02 0.02 0.03 0.04 0.04 0.05 0.05 0.05 0.05 0.05 0.03 0.02 0.02 0.02
0.01 0.03 0.04 0.03 0.03 0.01 0.01 0.01 0.01 0.03 0.02 0.01 0.02 0.02 0.02 0.03 0.04 0.03 0.03 0.03 0.03 0.03 0.02 0.02 0.03 0.03 0.04 0.04 0.05 0.04 0.02 0.02 0.03 0.03 0.04 0.04 0.04 0.04 0.05 0.05 0.04 0.03 0.03 0.03
0.01 0.02 0.02 0.04 0.04 0.02 0.01 0.01 0.02 0.02 0.01 0.01 0.01 0.01 0.02 0.02 0.02 0.03 0.03 0.02 0.02 0.02 0.02 0.02 0.03 0.03 0.03 0.03 0.04 0.05 0.03 0.03 0.03 0.03 0.04 0.04 0.04 0.03 0.04 0.05 0.05 0.05 0.04 0.04
0.01 0.01 0.01 0.02 0.02 0.02 0.01 0.02 0.02 0.02 0.02 0.01 0.01 0.01 0.01 0.01 0.02 0.02 0.02 0.02 0.02 0.02 0.02 0.03 0.03 0.03 0.03 0.03 0.03 0.04 0.05 0.03 0.03 0.03 0.04 0.04 0.03 0.04 0.04 0.04 0.05 0.06 0.05 0.04
0.01 0.01 0.01 0.02 0.01 0.01 0.02 0.02 0.02 0.02 0.02 0.02 0.01 0.01 0.01 0.02 0.02 0.02 0.03 0.02 0.02 0.02 0.02 0.03 0.03 0.03 0.03 0.03 0.03 0.04 0.05 0.04 0.03 0.03 0.03 0.03 0.03 0.03 0.04 0.05 0.05 0.06 0.05 0.04
0.01 0.01 0.01 0.01 0.01 0.02 0.02 0.02 0.02 0.02 0.02 0.01 0.01 0.01 0.01 0.02 0.03 0.03 0.03 0.03 0.02 0.02 0.03 0.03 0.03 0.03 0.03 0.03 0.03 0.04 0.04 0.04 0.03 0.03 0.03 0.03 0.03 0.04 0.04 0.05 0.05 0.05 0.05 0.04
0.01 0.01 0.02 0.02 0.01 0.02 0.02 0.02 0.02 0.01 0.01 0.01 0.01 0.01 0.02 0.02 0.03 0.03 0.03 0.03 0.03 0.03 0.03 0.02 0.02 0.02 0.03 0.03 0.03 0.03 0.04 0.04 0.03 0.03 0.03 0.03 0.03 0.04 0.04 0.04 0.05 0.05 0.05 0.04
MSLP
1002.58 1002.03 1001.68 1001.60 1001.79 1002.22 1002.83 1003.53 1004.22 1004.79 1005.20 1005.40 1005.43 1005.33 1005.20 1005.11 1005.15 1005.38 1005.82 1006.47 1007.28 1008.20 1009.18 1010.15 1011.10 1011.99 1012.83 1013.64 1014.42 1015.21 1016.00 1016.81 1017.62 1018.43 1019.23 1020.00 1020.73 1021.43 1022.07 1022.67 1023.23 1023.74 1024.21 1024.65
1001.69 1001.09 1000.75 1000.71 1000.98 1001.51 1002.24 1003.06 1003.84 1004.48 1004.92 1005.14 1005.14 1004.99 1004.77 1004.59 1004.54 1004.68 1005.04 1005.62 1006.39 1007.31 1008.31 1009.35 1010.37 1011.37 1012.33 1013.25 1014.14 1015.01 1015.86 1016.70 1017.53 1018.33 1019.11 1019.86 1020.59 1021.30 1021.98 1022.63 1023.25 1023.83 1024.37 1024.86
1001.03 1000.42 1000.09 1000.09 1000.41 1001.00 1001.78 1002.64 1003.46 1004.14 1004.60 1004.84 1004.85 1004.70 1004.48 1004.28 1004.19 1004.26 1004.54 1005.03 1005.72 1006.55 1007.49 1008.51 1009.55 1010.60 1011.64 1012.67 1013.68 1014.65 1015.60 1016.50 1017.35 1018.15 1018.91 1019.63 1020.34 1021.03 1021.73 1022.42 1023.10 1023.76 1024.37 1024.93
1000.74 1000.12 999.80 999.79 1000.10 1000.66 1001.41 1002.22 1003.01 1003.67 1004.14 1004.41 1004.49 1004.43 1004.30 1004.18 1004.13 1004.21 1004.44 1004.84 1005.39 1006.08 1006.88 1007.77 1008.74 1009.76 1010.83 1011.93 1013.04 1014.13 1015.18 1016.16 1017.06 1017.88 1018.63 1019.32 1019.99 1020.66 1021.35 1022.07 1022.80 1023.52 1024.22 1024.87
1000.84 1000.22 999.88 999.81 1000.02 1000.47 1001.07 1001.74 1002.41 1002.99 1003.46 1003.79 1003.99 1004.11 1004.17 1004.24 1004.35 1004.52 1004.76 1005.09 1005.50 1005.99 1006.58 1007.26 1008.06 1008.97 1009.99 1011.10 1012.28 1013.47 1014.63 1015.71 1016.68 1017.54 1018.28 1018.96 1019.59 1020.23 1020.89 1021.61 1022.38 1023.16 1023.93 1024.66
1001.33 1000.70 1000.28 1000.11 1000.15 1000.37 1000.73 1001.18 1001.65 1002.12 1002.55 1002.96 1003.34 1003.71 1004.07 1004.43 1004.80 1005.15 1005.47 1005.77 1006.04 1006.31 1006.63 1007.03 1007.58 1008.29 1009.18 1010.25 1011.45 1012.71 1013.97 1015.16 1016.23 1017.14 1017.92 1018.59 1019.19 1019.79 1020.42 1021.13 1021.89 1022.71 1023.53 1024.32
1002.13 1001.47 1000.96 1000.62 1000.43 1000.38 1000.43 1000.59 1000.82 1001.13 1001.53 1002.02 1002.60 1003.27 1004.00 1004.73 1005.43 1006.03 1006.48 1006.79 1006.94 1006.99 1007.01 1007.09 1007.32 1007.77 1008.48 1009.44 1010.61 1011.92 1013.27 1014.57 1015.74 1016.74 1017.57 1018.25 1018.84 1019.41 1020.00 1020.67 1021.42 1022.23 1023.08 1023.91
1003.16 1002.46 1001.85 1001.33 1000.90 1000.55 1000.28 1000.12 1000.10 1000.25 1000.60 1001.17 1001.96 1002.94 1004.03 1005.16 1006.21 1007.08 1007.71 1008.04 1008.09 1007.93 1007.66 1007.40 1007.30 1007.46 1007.93 1008.75 1009.85 1011.18 1012.59 1013.99 1015.27 1016.37 1017.27 1017.99 1018.59 1019.13 1019.69 1020.31 1021.02 1021.80 1022.63 1023.46
1004.32 1003.59 1002.90 1002.23 1001.59 1000.98 1000.43 1000.01 999.76 999.76 1000.07 1000.70 1001.67 1002.91 1004.33 1005.79 1007.16 1008.28 1009.06 1009.42 1009.40 1009.04 1008.50 1007.93 1007.50 1007.36 1007.60 1008.24 1009.25 1010.56 1012.02 1013.50 1014.89 1016.09 1017.07 1017.85 1018.47 1019.00 1019.52 1020.09 1020.73 1021.46 1022.24 1023.04
1005.55 1004.82 1004.09 1003.34 1002.57 1001.80 1001.08 1000.47 1000.08 999.97 1000.23 1000.91 1001.98 1003.40 1005.04 1006.75 1008.33 1009.62 1010.49 1010.86 1010.75 1010.24 1009.46 1008.62 1007.91 1007.51 1007.52 1007.99 1008.90 1010.16 1011.63 1013.17 1014.63 1015.92 1016.99 1017.82 1018.47 1019.01 1019.50 1020.02 1020.59 1021.25 1021.96 1022.70
1006.81 1006.13 1005.43 1004.71 1003.94 1003.15 1002.39 1001.73 1001.28 1001.13 1001.37 1002.05 1003.15 1004.63 1006.34 1008.12 1009.77 1011.11 1011.98 1012.32 1012.12 1011.47 1010.52 1009.47 1008.55 1007.93 1007.75 1008.06 1008.86 1010.05 1011.51 1013.06 1014.56 1015.91 1017.03 1017.92 1018.60 1019.14 1019.62 1020.09 1020.61 1021.19 1021.82 1022.48
1008.08 1007.50 1006.93 1006.34 1005.71 1005.05 1004.40 1003.84 1003.44 1003.32 1003.55 1004.19 1005.24 1006.64 1008.27 1009.96 1011.52 1012.76 1013.54 1013.78 1013.47 1012.71 1011.64 1010.46 1009.40 1008.64 1008.32 1008.51 1009.19 1010.29 1011.68 1013.20 1014.70 1016.05 1017.20 1018.11 1018.82 1019.36 1019.83 1020.27 1020.74 1021.26 1021.82 1022.41
1009.38 1008.95 1008.57 1008.21 1007.84 1007.45 1007.05 1006.70 1006.47 1006.43 1006.68 1007.26 1008.17 1009.38 1010.78 1012.23 1013.54 1014.56 1015.14 1015.23 1014.81 1013.97 1012.83 1011.61 1010.49 1009.66 1009.26 1009.35 1009.91 1010.90 1012.18 1013.61 1015.03 1016.35 1017.47 1018.37 1019.08 1019.63 1020.09 1020.51 1020.95 1021.43 1021.94 1022.47
1010.72 1010.47 1010.34 1010.28 1010.24 1010.21 1010.16 1010.11 1010.10 1010.21 1010.48 1010.97 1011.70 1012.63 1013.69 1014.77 1015.73 1016.43 1016.76 1016.67 1016.14 1015.24 1014.11 1012.90 1011.80 1010.97 1010.53 1010.54 1011.00 1011.85 1012.99 1014.27 1015.56 1016.77 1017.82 1018.68 1019.36 1019.91 1020.36 1020.79 1021.22 1021.67 1022.15 1022.64
1012.13 1012.07 1012.19 1012.44 1012.77 1013.12 1013.45 1013.75 1014.01 1014.27 1014.58 1014.97 1015.47 1016.08 1016.74 1017.40 1017.94 1018.28 1018.33 1018.05 1017.43 1016.53 1015.45 1014.32 1013.31 1012.53 1012.09 1012.05 1012.40 1013.09 1014.04 1015.13 1016.24 1017.30 1018.23 1019.02 1019.66 1020.18 1020.64 1021.07 1021.50 1021.96 1022.43 1022.91
1013.63 1013.74 1014.09 1014.62 1015.28 1015.99 1016.68 1017.29 1017.80 1018.22 1018.55 1018.84 1019.11 1019.39 1019.65 1019.88 1020.01 1020.00 1019.79 1019.34 1018.67 1017.80 1016.82 1015.83 1014.94 1014.25 1013.84 1013.76 1014.00 1014.52 1015.27 1016.13 1017.04 1017.91 1018.70 1019.38 1019.96 1020.46 1020.92 1021.36 1021.80 1022.27 1022.75 1023.23
1015.26 1015.50 1016.01 1016.75 1017.66 1018.64 1019.60 1020.47 1021.18 1021.70 1022.04 1022.23 1022.29 1022.26 1022.17 1022.02 1021.80 1021.48 1021.06 1020.50 1019.82 1019.03 1018.19 1017.36 1016.62 1016.04 1015.68 1015.57 1015.70 1016.06 1016.59 1017.23 1017.91 1018.58 1019.22 1019.79 1020.30 1020.77 1021.22 1021.67 1022.13 1022.61 1023.10 1023.59
1017.04 1017.35 1017.95 1018.80 1019.84 1020.97 1022.09 1023.10 1023.91 1024.49 1024.81 1024.90 1024.78 1024.51 1024.14 1023.69 1023.20 1022.68 1022.11 1021.51 1020.87 1020.19 1019.51 1018.86 1018.28 1017.82 1017.51 1017.37 1017.40 1017.60 1017.92 1018.35 1018.82 1019.31 1019.79 1020.26 1020.71 1021.15 1021.60 1022.05 1022.52 1023.01 1023.49 1023.97
1018.99 1019.32 1019.93 1020.78 1021.83 1022.97 1024.12 1025.15 1025.97 1026.53 1026.80 1026.79 1026.54 1026.10 1025.54 1024.90 1024.25 1023.60 1022.99 1022.40 1021.84 1021.30 1020.78 1020.31 1019.88 1019.52 1019.25 1019.08 1019.03 1019.08 1019.23 1019.47 1019.76 1020.09 1020.46 1020.84 1021.24 1021.65 1022.09 1022.54 1023.00 1023.47 1023.93 1024.38
1021.11 1021.42 1021.96 1022.73 1023.67 1024.71 1025.75 1026.69 1027.43 1027.91 1028.10 1028.01 1027.66 1027.12 1026.46 1025.73 1025.02 1024.35 1023.75 1023.22 1022.77 1022.37 1022.01 1021.68 1021.38 1021.11 1020.87 1020.68 1020.55 1020.49 1020.50 1020.58 1020.73 1020.95 1021.22 1021.54 1021.90 1022.30 1022.72 1023.16 1023.60 1024.04 1024.45 1024.84
1023.34 1023.61 1024.04 1024.66 1025.42 1026.27 1027.11 1027.87 1028.46 1028.81 1028.90 1028.73 1028.33 1027.75 1027.07 1026.34 1025.64 1025.02 1024.49 1024.06 1023.72 1023.46 1023.23 1023.03 1022.82 1022.61 1022.39 1022.17 1021.98 1021.82 1021.72 1021.70 1021.75 1021.89 1022.10 1022.38 1022.72 1023.11 1023.51 1023.93 1024.33 1024.72 1025.06 1025.37
1025.61 1025.83 1026.14 1026.58 1027.11 1027.71 1028.31 1028.84 1029.23 1029.43 1029.42 1029.18 1028.76 1028.19 1027.55 1026.89 1026.27 1025.73 1025.31 1024.99 1024.77 1024.61 1024.49 1024.37 1024.23 1024.05 1023.83 1023.59 1023.35 1023.12 1022.95 1022.85 1022.84 1022.93 1023.11 1023.37 1023.69 1024.07 1024.46 1024.84 1025.20 1025.52 1025.79 1026.00
1027.82 1027.99 1028.19 1028.44 1028.74 1029.08 1029.42 1029.70 1029.89 1029.94 1029.83 1029.56 1029.15 1028.63 1028.07 1027.51 1027.01 1026.59 1026.28 1026.07 1025.95 1025.88 1025.82 1025.76 1025.65 1025.48 1025.26 1024.99 1024.71 1024.44 1024.22 1024.07 1024.02 1024.08 1024.23 1024.48 1024.79 1025.15 1025.52 1025.87 1026.18 1026.43 1026.61 1026.74
1029.85 1029.99 1030.10 1030.18 1030.28 1030.38 1030.47 1030.54 1030.54 1030.46 1030.28 1029.99 1029.62 1029.19 1028.74 1028.31 1027.93 1027.64 1027.44 1027.32 1027.27 1027.25 1027.24 1027.20 1027.10 1026.93 1026.70 1026.41 1026.11 1025.81 1025.56 1025.38 1025.30 1025.33 1025.46 1025.69 1025.99 1026.32 1026.66 1026.97 1027.23 1027.42 1027.54 1027.58
1031.61 1031.75 1031.78 1031.74 1031.67 1031.58 1031.48 1031.37 1031.23 1031.06 1030.83 1030.56 1030.26 1029.92 1029.59 1029.29 1029.04 1028.86 1028.75 1028.70 1028.70 1028.72 1028.72 1028.68 1028.58 1028.41 1028.16 1027.87 1027.55 1027.23 1026.96 1026.76 1026.66 1026.66 1026.77 1026.97 1027.23 1027.53 1027.83 1028.10 1028.32 1028.46 1028.53 1028.51
1033.05 1033.19 1033.17 1033.05 1032.86 1032.64 1032.41 1032.18 1031.96 1031.74 1031.52 1031.29 1031.06 1030.83 1030.62 1030.44 1030.30 1030.21 1030.17 1030.17 1030.19 1030.21 1030.21 1030.17 1030.06 1029.88 1029.63 1029.33 1029.01 1028.69 1028.41 1028.20 1028.07 1028.04 1028.11 1028.26 1028.48 1028.74 1028.99 1029.22 1029.40 1029.52 1029.55 1029.51
Thickness
5544 5545 5547 5549 5547 5549 5549 5550 5552 5553 5549 5547 5555 5561 5564 5561 5557 5560 5561 5561 5561 5562 5563 5562 5560 5560 5559 5559 5558 5558 5556 5554 5552 5550 5548 5546 5544 5541 5539 5538 5537 5536 5535 5533
5536 5537 5540 5537 5534 5534 5537 5538 5544 5542 5536 5537 5544 5551 5557 5553 5549 5550 5552 5553 5552 5552 5552 5551 5550 5549 5549 5549 5549 5548 5547 5545 5544 5542 5540 5538 5535 5532 5530 5528 5527 5526 5526 5524
5532 5532 5528 5525 5525 5526 5530 5533 5535 5530 5525 5527 5528 5545 5548 5545 5541 5539 5539 5541 5542 5542 5542 5542 5540 5539 5539 5539 5538 5538 5537 5536 5534 5532 5529 5526 5523 5521 5519 5518 5518 5517 5516 5515
5521 5520 5517 5518 5519 5519 5524 5525 5521 5517 5517 5526 5522 5536 5551 5543 5537 5533 5532 5531 5532 5531 5531 5531 5530 5530 5529 5529 5528 5527 5526 5525 5524 5522 5521 5519 5519 5518 5515 5512 5510 5508 5508 5507
5514 5509 5509 5510 5512 5510 5514 5510 5509 5509 5510 5511 5515 5517 5545 5532 5531 5529 5525 5522 5520 5519 5518 5519 5518 5518 5518 5518 5517 5516 5515 5514 5513 5512 5512 5511 5510 5508 5505 5502 5500 5499 5498 5497
5502 5499 5499 5501 5499 5499 5497 5498 5497 5498 5500 5503 5517 5514 5536 5528 5524 5521 5516 5512 5509 5507 5506 5506 5506 5506 5506 5505 5505 5504 5503 5503 5502 5501 5501 5501 5500 5498 5496 5494 5492 5490 5489 5488
5495 5496 5490 5489 5490 5488 5489 5493 5499 5499 5499 5511 5508 5506 5519 5515 5508 5506 5504 5501 5499 5496 5495 5494 5494 5495 5494 5494 5493 5493 5492 5491 5490 5490 5490 5490 5489 5488 5487 5486 5484 5482 5480 5479
5483 5491 5483 5479 5481 5481 5482 5486 5490 5491 5501 5506 5496 5500 5508 5492 5486 5487 5489 5488 5486 5484 5483 5482 5483 5483 5482 5482 5481 5481 5481 5480 5479 5478 5478 5477 5477 5477 5476 5475 5474 5473 5473 5471
5473 5478 5470 5467 5467 5472 5474 5477 5478 5477 5480 5481 5497 5498 5491 5477 5473 5471 5472 5472 5472 5471 5470 5471 5470 5470 5470 5470 5469 5469 5469 5469 5467 5466 5466 5466 5465 5465 5465 5464 5463 5463 5462 5461
5460 5461 5462 5458 5459 5459 5462 5465 5465 5466 5469 5481 5493 5493 5493 5472 5466 5461 5460 5459 5458 5457 5457 5458 5458 5457 5458 5457 5457 5456 5456 5456 5455 5454 5454 5454 5453 5453 5453 5453 5452 5452 5451 5450
5448 5450 5453 5451 5450 5455 5451 5449 5452 5457 5458 5467 5478 5485 5467 5460 5455 5449 5447 5445 5444 5444 5444 5445 5445 5445 5444 5444 5444 5444 5444 5444 5443 5442 5442 5441 5441 5441 5441 5441 5441 5441 5440 5439
5439 5442 5445 5446 5440 5437 5441 5442 5443 5445 5444 5446 5456 5462 5446 5441 5439 5435 5433 5432 5431 5431 5431 5432 5433 5433 5433 5432 5432 5432 5432 5431 5431 5430 5430 5430 5430 5430 5430 5430 5429 5429 5428 5428
5429 5428 5438 5447 5437 5426 5423 5424 5425 5428 5432 5437 5442 5450 5430 5425 5424 5420 5418 5418 5417 5418 5418 5420 5421 5421 5421 5421 5421 5420 5420 5419 5419 5419 5419 5419 5419 5419 5419 5419 5418 5417 5417 5417
5423 5418 5427 5438 5439 5425 5415 5414 5414 5414 5421 5428 5433 5438 5428 5417 5411 5408 5405 5403 5404 5403 5404 5406 5408 5408 5409 5409 5408 5408 5408 5407 5407 5408 5408 5408 5409 5408 5408 5407 5406 5405 5404 5405
5412 5412 5411 5414 5415 5411 5410 5409 5405 5401 5406 5414 5423 5421 5418 5406 5397 5395 5393 5391 5391 5390 5389 5391 5393 5395 5395 5395 5396 5396 5396 5395 5395 5396 5397 5397 5397 5397 5396 5395 5394 5393 5392 5393
5400 5401 5399 5399 5404 5402 5398 5400 5397 5392 5392 5395 5399 5402 5396 5386 5383 5381 5379 5377 5377 5377 5377 5378 5380 5381 5381 5381 5382 5383 5384 5384 5384 5384 5384 5385 5384 5384 5383 5383 5382 5381 5381 5380
5391 5390 5392 5404 5395 5393 5399 5394 5389 5387 5384 5383 5389 5389 5375 5372 5370 5366 5364 5364 5364 5365 5365 5365 5366 5367 5368 5369 5369 5370 5371 5372 5372 5372 5372 5372 5372 5371 5371 5371 5370 5370 5369 5369
5377 5380 5383 5388 5383 5389 5399 5377 5376 5376 5374 5366 5364 5362 5360 5358 5356 5353 5352 5352 5353 5353 5352 5352 5353 5353 5355 5356 5356 5357 5358 5359 5360 5360 5360 5359 5359 5359 5359 5359 5359 5358 5358 5358
5369 5371 5376 5378 5384 5391 5382 5365 5358 5359 5366 5354 5351 5350 5346 5341 5345 5350 5342 5339 5339 5339 5338 5338 5339 5340 5341 5342 5343 5344 5346 5346 5348 5348 5348 5347 5347 5347 5347 5347 5347 5346 5346 5346
5354 5358 5366 5367 5375 5384 5380 5353 5344 5348 5361 5346 5338 5336 5331 5329 5346 5348 5333 5328 5326 5325 5325 5325 5326 5327 5328 5329 5330 5332 5333 5334 5334 5335 5335 5335 5335 5335 5335 5335 5335 5334 5334 5334
5345 5346 5350 5357 5362 5368 5348 5334 5335 5349 5356 5333 5329 5325 5320 5322 5326 5321 5316 5314 5313 5312 5311 5311 5313 5314 5314 5315 5317 5319 5320 5320 5320 5321 5321 5322 5322 5322 5322 5322 5322 5322 5322 5322
5342 5343 5338 5343 5349 5355 5329 5325 5331 5333 5321 5318 5317 5314 5311 5309 5306 5304 5302 5301 5300 5299 5299 5299 5299 5300 5300 5301 5303 5305 5305 5306 5307 5307 5308 5308 5308 5309 5309 5309 5309 5309 5309 5309
5332 5334 5338 5334 5338 5326 5315 5314 5310 5307 5307 5306 5305 5302 5299 5297 5295 5293 5291 5289 5287 5286 5286 5285 5286 5287 5287 5287 5289 5290 5291 5292 5293 5294 5294 5294 5294 5296 5296 5296 5297 5297 5296 5297
5317 5308 5312 5312 5315 5309 5303 5300 5297 5295 5294 5292 5290 5288 5287 5285 5283 5281 5279 5277 5275 5274 5273 5273 5273 5274 5274 5274 5275 5276 5277 5278 5280 5281 5281 5282 5283 5283 5283 5284 5284 5285 5284 5284
5314 5300 5301 5302 5302 5296 5294 5290 5287 5284 5281 5279 5277 5276 5274 5272 5271 5269 5267 5265 5263 5262 5260 5260 5260 5261 5261 5261 5262 5263 5264 5266 5267 5268 5268 5269 5269 5270 5270 5270 5271 5271 5271 5272
5297 5293 5297 5307 5298 5291 5290 5282 5277 5273 5271 5268 5266 5264 5262 5260 5258 5257 5256 5253 5251 5250 5249 5248 5248 5248 5249 5249 5250 5250 5251 5253 5255 5256 5256 5257 5257 5258 5258 5258 5258 5258 5258 5259